Location: Gebenbach
(49.5378°N, 11.8735°E)
Time: 03:18:45
(UTC+00:00)

Meteor 2-17 Rocket - Pass Details

Date: 29 October 2020
Orbit: 935 x 957 km, 82.5° (Epoch: 27 November)

Event Time Altitude Azimuth Distance (km) Brightness Sun altitude
Rises 18:36:01 0° 350° (N) 3,607 7.7 -26.6°
Reaches altitude 10° 18:38:31 10° 352° (N) 2,658 7.0 -27.0°
Enters shadow 18:44:33 79° 73° (ENE) 958 4.2 -27.9°
